Location: Adrasan
(36.3319°N, 30.4314°E)
Time: 07:32:26
(UTC+00:00)

COSMO-SKYMED 1 - Pass Details

Date: 28 May 2024
Orbit: 621 x 623 km, 97.9° (Epoch: 23 June)

Event Time Altitude Azimuth Distance (km) Brightness Sun altitude
Rises 02:07:30 0° 125° (SE) 2,894 6.3 -7.1°
Reaches altitude 10° 02:10:26 10° 103° (ESE) 1,992 5.9 -6.6°
Maximum altitude 02:13:00 16° 67° (ENE) 1,659 6.3 -6.1°
Drops below altitude 10° 02:15:33 10° 30° (NNE) 1,999 6.3 -5.7°
Sets 02:18:30 0° 9° (N) 2,910 6.7 -5.2°
